Wind_Speed
12 12 12 13 13 15 16 16 16 16 16 17 17 16 17 19 20 19 18 17 17 18 16 15 16 15 15 17 19 20 21 23 26 28 30 30 29 28 29 30 31 31 29 28 28 27 26 27 28 26 25 24 23 21 18 18 18 19 20 20 20 20 19 19 19 18 18 17 17 17 18 19 20 21 20 20 20 20 18 17 15 15 15 14 14
11 11 11 12 13 14 15 16 16 16 16 17 17 17 16 18 20 21 20 17 17 18 18 18 18 17 16 16 19 20 20 23 26 28 29 29 29 28 29 31 32 31 29 29 28 27 27 28 27 26 25 24 24 21 18 19 20 20 20 21 21 21 20 20 19 20 20 18 17 17 17 18 20 21 21 21 21 20 19 17 15 15 15 15 15
11 11 12 13 14 14 15 15 15 15 16 17 18 18 18 18 19 20 21 20 18 17 19 20 19 18 17 17 19 22 22 23 26 29 29 29 29 29 30 31 31 31 31 30 29 27 28 28 26 26 25 25 25 22 20 20 20 21 21 22 22 22 22 22 21 21 20 18 17 18 18 19 21 22 22 22 22 20 19 17 15 15 15 15 15
12 13 13 14 14 15 14 14 14 14 14 15 17 19 20 20 20 21 21 22 21 19 21 22 21 20 18 17 19 23 24 24 26 29 30 29 29 30 31 32 32 31 31 30 28 28 29 28 27 26 26 26 24 22 21 21 20 21 21 22 23 24 23 23 22 21 20 19 17 17 19 20 21 23 23 23 22 21 18 17 16 16 15 16 16
14 15 16 16 16 16 15 15 14 14 15 15 15 17 19 20 22 22 21 21 20 19 21 23 22 21 19 18 19 22 25 26 27 29 31 30 29 30 31 31 31 31 31 30 30 28 27 26 24 25 27 26 23 22 21 21 21 22 22 23 24 24 24 23 22 21 21 19 18 18 19 20 22 23 23 23 22 20 18 17 16 16 16 16 17
17 17 18 18 18 18 18 17 17 16 16 16 16 15 16 17 19 20 20 19 17 18 22 24 23 21 20 20 21 21 23 26 28 29 31 32 31 31 31 31 30 30 30 31 30 26 24 24 24 26 27 24 23 23 22 22 22 23 24 24 24 25 24 23 23 22 22 20 19 19 20 21 21 22 22 22 21 18 17 16 16 16 16 16 17
18 19 20 20 20 20 20 20 20 19 18 18 17 17 16 16 16 17 19 19 18 20 23 24 23 22 23 23 23 21 21 25 28 29 32 33 33 32 32 31 29 29 29 30 29 26 26 26 26 28 27 24 24 25 24 24 24 24 25 25 25 26 25 24 24 23 23 22 20 20 21 22 22 22 22 21 19 17 16 15 16 17 17 16 17
19 20 20 20 21 21 21 22 22 22 21 20 19 19 18 17 17 16 17 19 20 22 24 25 25 25 25 26 25 23 24 27 28 28 31 33 33 34 33 30 27 28 30 30 27 27 29 29 27 28 27 25 26 27 27 27 26 25 25 25 26 27 26 25 25 25 23 23 22 21 21 22 23 23 22 20 18 16 15 15 17 18 17 16 17
19 20 20 21 21 21 22 22 23 23 22 21 20 20 20 20 19 19 18 18 20 22 24 26 26 27 27 28 27 25 26 28 27 27 29 30 32 34 32 29 28 29 30 28 27 28 30 30 29 29 27 26 26 27 27 27 26 25 25 25 25 26 25 25 26 25 24 24 23 22 22 23 23 23 22 20 18 16 16 18 19 18 17 16 16
19 20 20 21 21 21 21 22 22 23 22 22 21 21 21 21 22 22 22 21 20 20 23 26 28 29 30 30 28 27 27 27 26 26 28 29 31 34 34 32 30 30 28 27 28 29 29 28 29 29 27 25 27 27 26 25 24 24 25 24 24 25 24 24 25 25 24 24 24 24 25 24 23 24 22 21 20 18 18 19 18 18 17 16 15
20 20 21 21 21 21 21 21 21 22 23 23 23 23 23 23 23 24 24 24 23 21 21 23 27 30 32 31 31 29 28 28 26 25 28 30 31 35 38 35 31 29 29 29 29 29 28 28 30 30 27 27 28 27 26 24 23 24 24 23 23 24 23 24 25 25 23 25 25 26 27 27 25 24 24 23 23 22 20 20 19 18 17 15 14
21 21 22 22 22 22 22 22 22 23 24 25 26 26 26 25 25 25 25 24 24 23 21 22 24 28 32 33 33 31 30 29 27 27 30 32 34 37 40 37 33 32 32 30 29 28 28 29 30 30 28 27 27 26 25 24 23 24 24 24 23 23 23 24 25 24 23 25 25 24 27 29 27 27 27 26 25 25 24 23 21 19 17 15 14
21 22 23 24 24 25 25 25 25 26 26 27 28 28 29 28 27 27 26 25 25 24 23 22 22 25 30 32 33 33 32 30 29 29 32 33 35 39 40 36 34 35 33 30 29 28 28 29 30 29 29 28 28 27 26 25 25 25 25 25 25 24 24 23 24 23 22 23 24 23 24 25 25 27 30 29 29 28 27 26 24 20 17 15 15
21 22 23 24 25 26 27 27 28 29 29 30 31 31 31 30 30 29 28 27 26 24 23 22 22 23 27 31 32 34 34 32 31 31 33 34 35 39 40 37 35 35 33 31 29 29 28 29 30 29 29 29 29 28 27 27 26 26 27 27 27 26 25 24 24 24 22 22 24 23 21 22 22 22 25 26 28 29 30 30 28 22 18 18 18
22 22 23 24 25 26 27 28 30 31 31 31 31 31 31 31 31 30 28 28 27 25 23 23 23 23 26 29 32 34 34 33 33 34 35 35 36 40 41 37 34 33 33 32 31 30 30 31 32 31 30 31 30 29 28 28 28 28 28 28 28 27 26 26 26 26 25 24 25 23 22 23 22 20 20 22 25 29 33 34 31 24 20 19 19
23 24 24 24 24 25 26 27 29 30 30 30 30 30 29 29 29 29 28 26 25 25 24 23 23 23 26 30 33 35 34 34 35 36 36 36 37 40 41 37 34 33 32 32 32 32 32 33 32 30 28 29 30 29 28 28 28 28 29 28 28 28 28 28 28 28 28 27 26 24 23 24 23 21 21 22 22 27 32 33 29 23 19 20 21
23 23 22 21 21 22 23 24 26 27 28 28 28 27 26 25 26 26 26 25 25 25 25 24 23 23 26 30 34 35 34 34 36 36 36 37 38 40 40 37 35 34 33 33 35 35 33 32 31 29 26 27 29 28 28 28 27 28 28 28 28 28 28 29 29 29 29 28 27 26 25 24 24 22 22 22 21 22 26 28 25 21 21 23 25
20 19 19 18 18 19 20 21 22 23 24 25 24 24 24 22 21 21 23 24 23 24 24 23 23 23 25 29 33 35 35 35 36 37 37 38 39 39 38 36 35 35 33 35 38 37 34 32 31 30 28 28 29 28 27 27 27 27 27 26 26 26 26 28 28 29 29 29 28 28 26 25 24 23 22 22 22 21 23 25 24 23 24 26 26
18 17 17 18 18 19 19 20 20 20 21 22 22 21 20 20 19 18 19 20 20 21 21 21 21 21 23 26 31 35 35 35 37 37 38 39 39 38 37 35 35 36 35 37 40 39 36 34 34 31 30 31 30 27 26 26 26 25 25 24 24 24 25 26 27 28 29 29 28 27 26 26 25 24 23 23 23 23 23 24 24 24 26 27 28
18 18 18 19 20 20 20 20 19 18 19 21 21 20 18 18 18 17 17 16 15 15 15 15 16 18 21 23 27 32 34 35 37 37 38 39 39 37 36 34 35 36 36 38 41 40 35 34 33 31 30 30 28 25 25 25 24 24 24 23 23 23 23 24 26 27 28 28 27 27 27 26 26 25 24 24 24 25 25 26 26 26 26 26 26
19 19 19 20 20 21 21 20 19 18 19 20 21 22 21 20 19 19 18 17 14 12 11 10 9 11 15 20 24 29 33 34 35 36 38 39 38 39 39 37 35 36 36 36 38 38 35 34 34 33 31 29 26 24 23 22 22 22 22 22 22 22 22 22 23 25 25 25 25 26 27 26 26 26 26 25 25 26 26 26 26 24 24 24 23
18 19 19 20 20 21 21 20 20 20 20 20 21 22 23 24 23 22 20 19 17 14 12 10 9 8 8 11 15 22 28 32 34 36 38 38 38 39 39 35 34 36 37 36 35 34 34 34 35 35 33 30 27 25 25 24 23 21 20 20 21 22 22 22 22 23 24 24 24 25 26 25 25 26 27 26 26 27 26 25 24 24 24 25 24
17 17 18 18 19 19 20 20 20 20 21 21 21 21 22 23 23 23 21 19 18 16 14 12 12 11 10 9 9 11 16 19 21 25 31 37 38 35 32 33 35 37 36 36 36 36 36 36 36 35 33 30 29 28 27 27 26 24 23 23 24 24 24 23 22 23 23 24 25 26 27 27 26 27 27 27 27 27 27 26 25 24 24 24 24
18 18 18 18 18 19 19 19 20 20 20 21 21 21 21 21 21 22 21 19 17 16 15 13 12 11 10 9 8 9 10 11 12 14 24 35 37 32 30 32 34 34 34 34 36 38 39 39 38 35 31 29 29 28 28 27 27 26 25 25 26 26 26 26 26 26 25 26 27 27 28 28 28 28 28 28 27 26 25 25 24 24 24 24 24
19 19 19 19 19 19 19 19 20 20 21 21 21 21 20 20 20 21 20 19 18 16 15 14 12 9 7 5 5 6 7 10 14 13 18 26 29 29 32 31 29 29 31 29 30 33 34 34 35 34 32 30 29 27 27 27 26 26 26 26 26 27 27 27 28 28 27 27 27 27 26 26 26 26 26 25 25 24 24 24 24 24 24 24 23
20 20 19 19 19 20 20 20 20 20 20 21 22 22 22 21 20 20 19 19 18 17 15 14 13 11 9 7 7 7 7 8 12 15 16 20 22 26 32 34 30 30 30 28 27 29 30 30 31 33 34 33 30 28 29 30 29 29 29 29 28 28 28 28 29 29 28 28 28 27 27 26 25 24 24 24 24 24 24 23 22 21 21 20 20
21 21 21 20 20 20 20 20 20 20 20 20 21 22 22 22 21 20 19 18 17 17 15 14 14 12 11 10 9 10 11 10 11 13 16 20 21 22 25 29 29 29 30 31 31 31 31 32 33 34 34 34 33 32 32 33 33 33 33 32 32 32 32 33 33 32 32 31 30 29 28 26 25 24 23 23 22 21 20 19 18 17 17 17 17
23 23 22 21 20 20 20 20 19 19 19 19 20 20 21 22 22 21 20 19 17 16 15 14 14 13 12 11 10 9 10 10 10 11 13 15 17 16 17 18 19 21 25 29 30 30 30 32 32 31 30 30 31 31 31 33 35 35 36 36 34 32 33 34 35 35 34 33 31 30 28 27 26 24 22 21 20 20 19 19 18 16 14 14 15
23 23 23 22 21 21 20 20 20 19 19 19 19 19 20 21 22 22 21 21 19 18 16 15 14 13 13 12 11 9 9 8 8 9 10 11 13 14 15 15 15 16 19 22 24 26 27 27 28 27 27 27 28 28 29 30 32 34 36 36 34 33 35 36 35 34 33 32 31 29 28 28 28 27 25 23 23 22 21 18 15 12 12 13 15
23 23 23 22 22 21 21 20 19 19 19 18 18 18 19 19 20 21 21 21 20 18 17 16 15 14 14 13 11 10 8 7 7 7 8 9 11 12 14 15 16 16 17 19 21 23 24 24 24 25 25 26 27 28 29 30 31 33 35 36 35 34 36 37 35 33 33 34 32 29 28 29 31 30 28 26 23 19 14 10 9 10 12 14 15
24 24 24 23 22 21 21 21 20 19 19 19 18 18 18 18 18 18 19 19 19 18 17 16 16 15 14 13 12 11 9 7 6 6 6 8 9 11 13 14 16 17 19 20 22 23 24 24 24 24 25 25 26 27 28 30 30 31 32 31 29 28 29 29 28 27 29 31 30 28 27 29 29 28 26 21 16 10 6 6 9 12 14 15 16
24 24 24 24 23 22 21 21 20 19 19 19 19 18 17 16 17 17 17 17 17 17 16 15 15 14 14 13 13 12 10 8 7 6 6 6 7 9 11 13 15 17 19 21 22 24 25 26 26 26 26 26 25 26 27 27 27 27 26 25 24 23 23 22 22 22 23 24 24 23 23 23 21 19 16 11 7 4 5 8 11 13 14 15 15
24 24 24 24 24 23 23 22 21 20 19 19 19 18 17 15 15 15 16 16 16 15 15 14 12 12 12 12 11 11 10 8 7 5 5 5 6 7 8 10 11 13 15 17 19 21 22 23 23 24 24 24 24 25 25 25 25 24 24 23 23 23 22 21 21 21 21 20 18 17 16 14 11 9 7 5 4 5 8 10 12 13 14 15 15
24 23 23 23 23 22 22 22 21 20 19 19 19 19 18 16 15 13 13 15 16 15 14 13 12 10 10 10 9 9 9 8 7 5 4 4 4 5 6 7 8 9 10 12 14 16 17 18 19 20 21 22 22 23 23 23 23 23 23 22 22 22 21 19 19 18 17 15 13 11 10 8 6 5 4 4 5 8 9 11 12 13 14 14 14
23 22 22 23 22 22 21 22 21 20 19 19 19 19 19 18 17 15 13 14 16 16 14 13 12 11 10 9 8 7 7 7 6 6 4 3 3 3 3 4 5 6 6 7 9 10 12 13 14 15 16 16 17 17 18 18 17 17 17 16 16 15 15 14 13 13 11 10 9 8 7 5 4 4 4 5 7 9 10 11 12 13 13 14 14
21 21 21 21 21 20 20 20 19 18 18 19 19 19 19 18 18 17 15 14 16 16 14 14 14 13 11 10 9 8 7 6 5 5 4 3 3 2 2 3 3 4 5 6 6 7 8 9 10 11 12 12 13 13 13 13 13 13 13 13 13 13 12 12 11 10 9 8 7 6 5 4 4 5 6 7 9 9 10 11 11 12 13 13 13
20 20 19 20 20 18 18 18 18 18 18 19 20 19 18 18 18 17 16 15 16 15 13 12 13 13 12 12 11 11 10 8 7 5 5 4 3 2 2 3 3 4 5 6 7 8 9 9 10 11 12 13 13 14 14 14 14 14 14 13 12 11 10 9 8 7 6 6 5 5 5 5 6 7 8 8 9 9 10 10 11 12 12 12 13
21 19 19 20 20 19 18 18 18 18 17 17 18 18 17 16 17 17 17 17 18 18 15 13 12 12 12 12 13 13 12 11 9 7 6 6 5 4 3 3 3 4 4 5 6 7 8 10 10 11 12 13 13 13 13 13 12 11 11 10 9 8 7 5 5 4 4 4 4 5 6 6 7 7 8 8 8 9 9 10 10 11 11 11 11
21 20 19 20 20 19 19 19 18 18 17 16 16 17 18 17 18 18 19 19 19 19 18 16 15 14 14 15 16 15 13 12 11 9 8 8 8 7 6 4 3 3 3 4 4 5 6 8 9 10 11 11 11 11 11 10 9 8 7 6 5 5 4 4 4 5 5 5 6 6 7 7 7 7 7 8 8 9 9 9 9 10 10 10 10
20 20 20 20 20 20 20 20 18 18 19 18 17 17 18 19 20 20 21 21 21 19 19 18 17 17 17 17 17 16 15 13 12 11 10 9 9 9 8 7 6 5 4 3 3 4 5 6 7 8 8 9 8 8 8 7 6 6 5 5 5 5 5 5 5 6 6 7 7 7 7 7 7 7 7 7 8 8 8 8 8 9 8 8 8
19 20 20 20 20 20 20 20 19 18 19 19 19 19 19 20 21 21 21 20 19 19 19 18 18 18 18 18 17 16 15 14 13 12 11 10 9 9 9 9 8 7 6 4 4 4 4 5 5 6 6 6 6 5 6 6 6 6 6 6 6 6 7 7 7 7 7 7 7 7 7 7 7 7 7 7 7 7 7 7 7 7 7 6 6
19 20 20 20 21 21 21 21 20 18 18 19 20 20 19 18 19 20 21 19 19 20 20 18 18 18 18 18 17 16 15 15 14 13 12 10 9 9 9 9 9 8 7 6 5 5 4 5 5 5 5 5 5 6 6 7 7 7 7 8 8 8 8 8 8 8 8 8 7 6 6 6 6 6 6 6 6 6 6 6 5 5 5 4 3
19 20 20 21 21 21 22 21 20 18 18 20 20 20 19 17 16 18 19 20 20 21 20 18 18 18 18 18 17 17 16 15 14 14 12 10 9 8 9 9 9 8 8 8 7 7 6 6 6 6 6 7 7 7 8 8 9 9 9 9 9 9 9 8 8 8 7 7 6 6 6 6 6 6 6 5 5 4 4 4 3 3 2 2 2
19 20 21 21 21 22 22 22 21 20 20 21 21 20 19 17 15 16 17 19 21 22 21 19 19 20 19 19 18 17 16 16 15 13 12 11 9 8 8 9 9 8 8 8 8 8 8 8 8 8 8 8 9 9 9 10 10 10 10 9 9 9 9 8 8 7 7 7 6 6 7 7 6 6 5 4 3 3 3 2 1 1 1 2 3
20 20 20 21 21 22 22 22 21 21 20 20 20 20 18 17 16 16 16 17 20 22 20 20 21 22 22 20 18 16 16 15 15 13 12 11 10 9 8 8 8 8 8 8 8 9 9 9 9 9 9 10 10 10 10 10 10 10 10 9 9 9 9 8 7 7 6 6 6 6 6 6 6 5 4 4 3 3 2 1 1 2 3 3 4
20 20 20 20 21 21 22 22 22 21 20 19 19 19 18 16 16 16 16 17 19 20 18 18 20 23 23 23 21 18 16 15 15 13 12 11 10 9 8 8 8 8 8 8 8 8 9 9 10 10 10 10 10 10 10 10 10 10 10 10 10 9 8 7 6 6 6 5 5 5 6 6 5 4 4 4 3 2 0 1 2 3 3 4 4
19 20 20 20 21 21 22 22 21 21 20 19 18 18 17 17 16 16 16 17 18 19 17 16 18 20 22 23 22 19 17 16 15 13 12 11 10 9 8 8 8 8 8 8 8 9 9 9 9 10 10 10 10 10 10 10 10 10 10 10 9 8 7 6 5 5 5 5 5 5 5 5 5 4 4 3 2 1 1 2 3 3 3 3 3
19 20 21 21 21 21 21 21 21 21 21 20 19 18 17 17 16 16 16 16 17 17 15 15 16 18 21 23 22 19 17 16 15 14 12 10 9 8 8 8 8 8 8 8 8 9 9 9 9 9 9 10 10 10 10 10 10 9 9 8 7 6 5 5 5 5 5 5 6 5 5 4 4 3 2 1 1 1 2 2 1 1 2 2 2
19 20 20 21 20 20 20 20 20 20 20 20 20 18 17 16 16 15 15 15 16 16 16 16 16 18 20 22 22 20 17 16 16 14 12 10 9 8 7 7 7 7 7 7 8 9 9 10 10 10 10 10 10 10 10 10 9 9 8 7 6 6 6 5 5 6 6 6 5 4 3 2 2 2 1 1 0 0 1 1 1 1 2 2 3
19 20 20 20 20 19 19 19 19 19 20 20 20 18 17 16 15 14 14 15 15 16 16 16 17 17 19 20 21 21 18 16 15 14 12 9 8 8 8 8 8 8 8 9 11 11 11 11 11 11 11 10 10 10 10 10 9 8 8 7 6 6 6 6 6 6 5 4 3 2 2 2 2 2 2 1 1 2 2 3 2 2 3 3 4
19 19 20 20 19 19 19 19 19 19 19 19 19 18 16 15 14 14 14 14 15 15 16 16 16 16 17 19 20 21 19 16 15 14 12 9 7 7 8 9 9 10 11 11 11 12 12 12 12 12 11 11 10 10 10 9 9 8 7 7 6 6 6 5 5 5 4 3 3 3 3 3 3 3 2 2 3 3 3 3 3 3 3 4 3
Wind_Direction
306 308 309 307 307 308 310 311 313 313 310 308 305 294 276 262 256 257 262 267 270 273 279 286 291 289 277 262 252 245 238 235 233 231 229 224 220 219 219 222 228 228 226 225 225 225 226 229 231 231 232 235 233 227 224 228 231 229 228 229 231 233 237 238 237 237 238 236 235 236 234 233 234 234 233 230 229 232 233 233 234 236 238 240 238
312 313 315 316 316 315 315 314 311 308 304 299 298 294 283 270 261 257 258 264 268 270 275 282 285 284 279 266 254 247 244 238 231 227 226 224 219 218 220 224 229 232 231 227 223 223 225 227 230 230 230 233 233 229 227 228 230 230 229 230 232 233 235 238 238 239 240 234 232 236 236 234 235 235 234 233 232 233 234 234 235 237 239 241 241
318 319 321 323 324 324 323 322 318 311 304 298 293 290 284 279 274 267 260 259 263 269 274 279 282 280 277 269 256 248 246 241 233 227 225 222 218 218 222 226 230 233 233 229 222 221 225 227 228 229 230 231 230 229 229 228 228 229 228 228 231 233 233 234 234 236 239 235 230 234 236 234 235 235 234 234 234 234 234 235 236 237 238 240 242
319 320 322 323 325 328 329 330 329 325 318 307 298 291 284 279 277 277 272 261 258 267 275 277 277 274 273 270 258 248 244 241 235 230 227 223 219 219 222 226 229 232 234 233 228 223 224 224 225 227 228 228 228 229 230 229 226 227 228 228 229 231 232 233 232 232 235 235 230 232 235 234 234 234 234 235 234 233 234 236 237 237 238 239 242
316 316 317 319 321 324 326 328 329 330 329 323 313 301 290 283 277 279 282 273 261 266 275 275 273 270 269 268 258 246 240 239 237 233 229 225 221 220 223 225 227 229 232 236 234 228 225 223 224 229 230 228 230 232 231 230 226 225 227 227 227 230 231 231 232 230 232 233 232 233 236 234 234 235 235 235 234 233 234 236 237 238 239 240 242
315 315 314 316 317 318 318 320 322 324 326 325 323 316 305 294 282 277 283 285 276 272 273 270 267 265 264 262 257 249 241 239 239 236 231 227 223 222 223 225 225 226 229 234 234 232 232 230 230 235 235 231 232 233 232 231 227 224 225 225 227 230 230 229 231 230 230 231 230 232 236 235 234 235 236 235 235 234 236 239 242 243 242 241 242
313 313 313 313 313 314 314 313 314 316 317 318 319 319 317 311 298 282 277 280 279 276 272 268 263 259 257 258 256 251 243 240 240 238 233 229 226 224 224 224 224 224 229 233 231 230 233 232 231 234 235 233 235 235 233 231 228 225 224 223 225 229 229 227 229 230 229 230 228 230 235 236 234 234 235 235 235 236 240 246 249 248 245 245 247
310 309 310 310 310 311 311 310 310 310 313 314 313 312 313 314 313 303 289 280 274 270 268 266 260 255 255 257 255 247 237 234 238 239 234 231 228 225 224 223 223 226 229 231 231 231 234 233 231 233 236 236 235 236 234 231 226 223 224 225 227 229 228 226 228 229 229 230 228 228 234 235 233 232 232 232 233 237 244 247 248 249 250 251 255
307 306 307 308 308 309 308 308 309 310 312 314 312 310 308 307 309 310 307 298 285 272 265 261 258 254 252 254 256 254 241 232 234 237 234 232 230 227 224 223 226 230 232 234 237 238 238 237 236 236 237 235 235 238 239 236 231 226 225 225 226 229 229 227 229 230 229 232 230 227 231 234 232 232 231 229 230 234 239 241 244 249 253 255 257
307 306 306 307 307 308 308 309 310 311 313 314 314 312 309 306 304 304 305 305 300 289 274 263 257 254 251 250 251 254 249 239 234 233 233 233 231 228 225 223 226 231 235 239 242 242 240 237 236 236 235 231 233 238 240 238 235 233 231 226 224 227 227 227 231 231 230 235 233 227 230 233 231 231 230 227 228 230 233 238 243 248 252 254 254
308 308 308 309 309 309 309 309 311 312 313 314 314 313 311 308 305 302 301 300 300 299 288 272 261 254 252 252 250 250 251 246 237 231 230 231 230 228 227 225 226 229 233 240 243 241 238 236 234 234 232 229 230 235 237 234 232 234 237 234 231 231 229 229 233 233 232 237 235 228 230 232 230 232 232 227 228 231 233 238 241 244 249 249 248
309 311 311 311 311 311 310 310 310 310 311 312 311 311 310 309 306 303 301 299 297 297 293 283 270 258 253 252 250 250 250 247 240 232 230 230 230 230 229 225 222 225 230 238 242 238 233 232 231 231 231 230 231 233 233 232 231 232 235 237 237 236 235 234 236 235 234 237 237 233 236 237 233 233 234 232 231 232 234 236 237 240 245 244 243
310 311 312 312 311 311 311 311 309 308 308 308 307 307 307 307 306 303 301 299 296 294 292 287 278 266 256 250 249 249 248 246 240 234 231 231 229 231 232 226 221 223 227 235 240 237 231 230 229 229 229 230 231 231 230 230 231 232 233 235 236 236 237 237 239 238 237 240 240 235 238 244 239 234 235 235 233 234 236 237 234 235 240 239 238
313 312 312 312 312 312 311 310 308 307 306 305 304 304 304 303 303 302 300 298 295 293 291 287 280 270 259 250 247 248 247 243 239 235 234 233 229 229 231 226 221 224 227 231 236 236 232 230 228 226 227 228 230 231 231 231 231 231 231 232 233 234 234 234 236 237 236 240 244 240 237 242 241 235 234 234 234 237 240 238 233 229 231 235 240
317 316 314 313 312 311 310 307 306 306 305 305 304 303 303 302 301 300 298 297 295 293 291 288 281 271 261 251 244 245 246 242 237 235 235 234 231 229 230 227 221 222 226 228 231 234 233 230 227 224 223 226 229 231 231 232 232 231 231 232 232 233 234 232 232 233 233 235 243 245 242 241 240 236 236 237 239 240 239 237 233 229 229 234 241
320 319 317 315 313 312 310 308 308 307 307 306 306 304 303 301 299 299 297 295 293 292 291 288 281 270 260 251 244 243 244 240 236 235 234 234 233 229 229 229 225 222 224 226 228 231 233 232 231 227 224 225 228 231 232 233 233 232 233 233 233 233 233 233 231 232 232 233 237 242 244 243 240 237 238 242 245 241 237 235 234 231 231 235 241
324 321 319 318 317 316 315 313 312 311 310 309 307 305 303 300 297 296 295 293 291 290 289 286 280 270 259 251 245 242 241 236 233 234 232 233 234 231 228 227 225 221 222 225 226 228 230 231 232 232 230 230 231 231 231 232 233 233 233 233 232 232 232 233 232 232 232 233 234 238 241 241 240 239 238 241 243 237 232 232 233 231 232 236 241
328 324 323 323 325 326 325 323 320 316 313 313 312 310 307 302 296 290 289 291 291 289 288 285 280 272 260 251 245 242 240 235 231 231 230 231 234 232 226 224 222 220 221 224 225 226 226 228 230 229 228 231 233 231 232 232 231 232 232 230 230 229 229 231 231 231 233 233 234 237 239 240 240 240 237 235 235 229 225 227 231 231 233 236 240
333 332 331 330 331 333 333 332 330 326 322 320 320 318 314 308 302 293 288 289 290 290 288 283 278 271 261 253 246 242 240 235 230 230 230 232 234 230 224 222 222 221 221 224 225 225 224 225 228 226 224 228 231 231 231 232 231 230 230 228 228 228 228 227 228 230 232 233 233 236 238 239 239 238 236 233 231 229 227 230 233 234 238 243 245
341 342 341 340 339 338 337 336 336 337 337 333 331 330 326 321 317 311 306 303 299 297 297 288 277 269 260 253 247 243 241 236 232 230 231 233 234 228 220 218 220 220 220 224 227 227 224 223 223 223 224 227 229 229 229 231 230 229 229 227 227 228 228 228 228 229 231 232 232 232 233 234 235 235 236 236 234 233 234 235 236 237 241 244 246
347 347 347 346 345 343 342 342 341 341 345 346 343 341 340 338 335 332 331 333 329 324 324 318 298 276 262 253 247 242 238 235 232 231 231 232 231 226 218 217 221 221 219 222 226 225 222 222 222 224 225 225 225 226 228 229 227 226 226 227 226 224 223 223 226 228 228 229 230 230 230 231 232 235 235 235 235 235 236 236 237 239 244 247 250
351 351 351 349 348 346 344 344 344 344 345 348 348 347 346 345 344 343 343 344 343 341 340 338 333 320 294 275 261 247 240 237 235 232 231 230 227 225 222 221 222 221 218 217 220 220 218 220 221 221 222 222 222 224 227 227 224 221 221 223 225 224 222 221 224 227 228 228 229 231 232 230 230 233 234 233 234 235 237 240 241 244 249 253 257
352 353 353 351 351 350 346 345 345 344 344 345 346 347 347 347 346 346 345 344 342 341 340 335 334 336 333 325 303 270 253 246 239 230 226 226 223 219 218 217 217 219 220 221 221 217 214 218 222 222 222 222 223 225 228 228 225 221 218 219 222 225 225 223 223 225 225 224 225 227 230 230 230 232 233 234 236 238 240 243 246 247 250 254 258
353 351 351 351 351 351 350 349 348 345 343 343 344 346 347 347 346 345 346 345 342 338 334 330 331 338 341 335 319 294 274 257 241 215 209 217 221 218 216 219 221 222 223 225 223 217 215 220 224 224 224 226 227 228 229 230 227 223 221 220 221 224 226 224 224 224 224 225 226 228 231 233 234 235 236 237 239 241 243 245 247 249 252 255 258
357 355 354 353 351 351 351 350 350 349 347 346 346 346 347 348 347 346 346 346 344 340 333 326 322 322 324 321 306 300 282 259 252 234 208 211 219 218 217 220 222 220 218 220 220 217 217 223 225 221 220 223 227 229 230 231 231 228 226 224 224 226 229 229 228 228 228 230 231 231 232 234 234 236 237 238 239 241 244 247 249 251 253 255 257
358 358 358 357 355 353 351 349 348 349 350 349 348 347 348 347 347 346 346 346 346 344 339 332 324 315 302 281 263 268 275 267 264 258 241 233 235 231 226 225 224 222 219 218 216 215 216 221 226 225 224 223 224 225 227 230 232 231 228 226 224 225 229 232 232 232 231 231 230 231 232 234 235 236 237 238 240 242 244 247 249 251 253 256 259
359 359 359 359 359 357 354 351 349 349 350 350 348 348 348 347 346 345 346 346 346 345 344 341 335 326 314 298 280 270 269 268 263 258 251 247 245 239 233 229 228 227 223 219 219 220 220 222 227 230 230 229 228 226 226 228 230 230 228 228 227 226 226 228 230 231 230 229 229 230 231 232 233 235 237 239 241 241 241 243 245 248 252 257 263
1 0 0 360 359 359 356 354 353 352 350 350 348 347 347 346 345 346 347 347 347 346 347 347 344 339 330 318 307 293 281 272 261 251 244 240 238 237 237 235 234 232 226 220 218 221 223 225 229 232 234 236 236 235 234 233 233 233 232 230 232 233 232 231 232 233 233 232 231 231 232 233 234 234 234 234 234 234 235 238 240 245 254 263 268
5 3 2 1 360 358 357 357 357 355 353 352 351 349 348 347 347 347 348 350 350 349 349 348 348 348 346 338 327 315 300 287 276 263 251 244 242 242 244 245 244 242 237 230 225 224 226 228 231 234 238 240 242 244 245 243 242 241 239 237 240 245 244 240 238 240 243 244 242 240 240 242 243 241 238 236 236 237 238 241 245 254 265 269 270
9 6 5 4 2 360 358 358 359 358 356 357 355 352 351 351 350 348 347 348 351 352 350 348 349 352 352 348 342 336 326 310 293 278 265 258 254 250 248 247 245 243 242 240 237 234 233 233 234 237 240 243 245 248 249 248 247 246 243 242 245 248 245 239 236 238 244 246 243 242 245 249 249 247 244 241 238 237 238 245 259 267 269 268 272
10 9 8 6 5 3 1 0 1 0 360 0 360 358 356 354 351 351 349 347 348 350 350 351 353 355 356 355 351 347 346 341 325 302 280 265 256 252 250 248 246 243 241 240 239 237 236 238 241 243 245 247 248 248 248 247 245 243 241 239 238 238 237 236 235 237 242 243 240 239 243 247 246 242 237 232 227 225 230 250 260 263 265 270 278
11 11 10 8 7 7 6 4 4 5 5 4 2 3 2 356 350 350 350 347 344 344 346 348 351 352 353 357 359 356 353 351 343 330 312 291 272 262 254 250 248 246 244 243 243 243 244 247 250 251 252 252 249 246 243 240 238 236 235 234 233 233 233 234 235 237 239 238 235 232 233 233 231 226 221 213 205 214 241 254 260 265 272 279 285
12 13 13 11 10 10 9 9 8 7 8 7 5 5 5 1 354 350 347 344 342 341 340 340 345 349 349 350 354 356 353 349 344 335 323 308 291 278 268 260 255 251 249 248 246 245 246 247 248 248 249 247 243 239 236 234 233 233 234 235 236 235 233 231 231 231 228 222 216 212 210 207 201 194 188 184 207 241 253 261 267 274 280 285 289
11 12 13 13 14 13 11 11 10 9 9 10 10 8 6 4 360 352 345 342 344 345 340 335 334 338 340 340 342 345 346 344 340 332 319 305 288 273 264 257 252 248 247 247 245 242 239 237 235 235 235 235 234 233 232 232 232 233 232 231 230 228 224 219 216 212 205 195 186 180 175 168 160 161 176 208 238 252 260 267 274 279 284 286 288
11 11 11 11 14 15 13 9 7 7 8 10 10 9 6 5 4 359 353 348 349 350 348 342 334 330 327 324 322 323 326 328 327 323 309 289 271 253 237 229 224 221 218 219 222 224 222 220 218 218 219 219 219 218 217 217 215 213 210 205 201 196 190 183 177 171 162 153 147 144 143 147 161 184 215 237 250 258 264 271 277 281 284 286 288
11 12 11 11 12 13 12 7 2 360 2 6 7 5 4 5 6 5 1 355 353 355 355 346 337 332 327 319 311 305 303 302 305 309 305 285 254 223 203 185 171 169 172 172 174 177 181 182 183 182 182 183 182 182 179 175 171 166 161 156 151 146 142 138 134 132 129 130 134 140 151 172 200 222 238 249 256 262 269 275 279 282 285 288 290
9 10 11 12 12 11 9 6 0 356 357 2 1 358 358 1 4 5 4 357 355 358 359 349 339 335 331 323 314 306 301 294 287 283 283 280 265 226 192 169 152 149 152 152 152 152 151 151 152 151 150 149 147 145 143 139 135 131 129 126 124 121 120 120 121 126 134 143 155 172 193 215 230 241 248 254 260 266 271 276 279 282 285 287 288
6 7 6 8 10 9 5 4 3 359 358 358 356 351 351 355 357 357 357 354 352 356 357 351 343 336 329 323 320 317 313 307 297 284 271 265 260 246 217 186 165 158 155 151 149 149 147 145 143 140 136 133 130 127 124 121 119 118 118 118 118 120 124 129 138 150 166 181 198 216 228 236 242 247 251 257 264 269 273 277 279 281 283 284 286
2 2 2 2 4 4 2 2 3 360 356 356 353 347 345 345 345 344 344 341 341 346 350 348 344 340 333 328 325 324 321 316 308 299 286 272 261 254 246 233 214 192 174 161 154 149 146 143 139 135 131 126 122 120 118 117 117 119 122 126 132 141 153 167 180 190 200 210 219 227 232 236 241 247 253 259 265 269 272 275 277 279 283 286 290
359 358 357 357 359 0 1 0 359 356 354 355 352 344 338 337 336 335 335 334 334 339 343 344 343 342 339 333 328 324 322 319 314 307 299 287 272 260 253 247 240 232 216 191 172 159 151 147 142 136 131 127 124 123 123 126 130 137 144 154 166 177 187 195 201 208 212 216 220 224 227 233 240 246 254 260 265 269 273 275 278 281 284 289 294
356 354 354 355 356 359 360 359 356 355 354 353 350 344 340 339 337 336 337 337 339 341 342 341 342 342 340 337 334 330 325 319 313 306 302 296 284 271 262 253 244 235 228 217 201 184 167 158 153 148 144 141 139 140 144 150 156 164 172 180 186 191 196 202 206 210 212 213 216 219 225 234 243 249 257 263 266 269 273 275 279 285 291 296 301
352 351 352 352 354 356 357 357 357 355 352 349 347 347 348 346 342 341 342 344 343 343 343 342 342 342 340 339 339 336 328 320 312 304 301 297 286 273 266 260 248 234 224 220 214 204 195 188 184 180 175 173 173 173 175 178 182 185 188 191 193 196 199 202 203 205 207 209 214 221 230 240 249 253 256 259 261 267 274 281 287 294 298 298 301
349 349 348 349 351 353 354 355 355 354 350 347 347 349 352 352 345 342 343 343 342 342 343 344 345 345 342 342 342 338 330 322 315 308 302 297 285 270 262 259 253 236 222 217 214 210 209 209 207 204 198 192 190 189 188 188 189 190 191 193 195 196 198 198 198 202 207 212 220 230 239 244 248 248 248 251 259 270 280 288 291 288 289 308 335
346 347 346 347 348 349 350 352 352 351 350 350 350 349 351 350 345 342 342 340 339 340 343 347 351 352 349 347 345 340 332 326 321 315 308 299 286 268 253 250 248 238 225 220 215 210 211 213 211 207 202 197 195 194 193 191 192 192 192 194 194 194 194 195 197 204 213 222 230 238 243 243 241 237 235 239 248 254 257 260 270 298 353 24 27
344 344 344 344 344 344 345 347 349 349 349 350 349 347 346 343 340 339 340 338 338 339 341 345 350 353 353 352 349 344 336 330 326 320 312 301 288 272 250 239 237 233 226 222 217 212 210 209 207 206 203 200 199 198 195 194 195 194 194 196 195 193 193 196 204 216 228 236 239 240 238 235 230 220 212 212 217 223 230 232 40 27 24 28 27
341 341 341 341 341 340 340 341 344 347 348 347 345 344 342 340 337 334 333 334 336 339 341 345 349 352 353 354 353 348 341 333 328 322 314 301 288 274 253 235 229 226 223 221 217 213 209 206 204 203 203 202 202 203 201 200 199 197 196 196 195 194 196 205 220 233 240 241 239 234 229 225 219 206 196 196 197 195 58 27 27 24 21 20 20
337 338 339 339 338 337 337 338 339 342 343 345 344 343 341 339 337 333 331 333 338 341 343 344 346 348 351 354 354 348 341 336 332 327 318 303 286 271 253 235 225 220 217 215 214 213 211 208 206 205 204 204 204 204 204 202 200 198 195 194 195 199 208 220 231 236 235 232 229 226 220 215 206 192 181 177 166 101 39 27 19 11 8 8 6
335 335 336 338 338 337 336 336 338 339 340 341 342 342 341 339 337 334 331 332 336 339 338 338 339 342 346 350 352 348 342 338 337 331 321 304 284 266 251 237 226 218 213 213 214 214 213 211 209 209 209 210 208 205 204 204 201 198 197 198 203 212 222 227 228 225 223 221 217 213 210 204 188 169 160 147 90 36 22 24 15 348 336 328 319
334 334 335 337 338 338 337 337 338 339 339 339 339 339 338 336 334 332 330 330 331 332 332 332 332 334 338 344 349 351 347 343 339 336 327 310 284 260 243 234 231 224 216 213 215 214 212 211 211 212 212 211 208 206 204 203 202 200 203 207 213 216 218 218 216 214 214 212 207 197 188 174 148 140 152 165 207 298 279 246 230 244 274 287 293
333 334 335 337 339 340 340 339 339 340 340 339 338 337 335 333 330 329 329 328 325 324 327 329 330 331 335 341 347 351 351 347 341 337 333 320 293 264 241 227 222 220 220 221 222 222 218 213 209 207 206 205 203 203 203 204 206 208 209 209 208 206 203 202 204 203 201 197 187 165 147 144 148 161 183 213 233 235 233 228 233 256 282 293 300
332 332 333 335 338 340 341 340 340 340 340 340 339 336 333 329 327 326 327 326 321 320 323 328 330 332 335 337 341 346 350 351 345 339 334 324 303 279 257 240 230 226 226 227 228 227 221 210 203 200 199 200 201 203 206 209 209 207 203 199 196 193 190 187 187 185 177 162 149 142 144 150 160 177 196 212 221 224 229 242 259 281 295 304 315
Height
3127 3127 3126 3125 3124 3124 3122 3121 3120 3119 3118 3116 3115 3115 3115 3115 3115 3115 3115 3115 3115 3115 3115 3114 3114 3113 3112 3111 3111 3111 3111 3111 3112 3113 3115 3116 3116 3117 3118 3120 3120 3121 3122 3123 3125 3126 3128 3129 3131 3133 3135 3136 3138 3139 3140 3142 3143 3144 3146 3147 3147 3148 3149 3150 3150 3150 3151 3152 3153 3154 3154 3155 3156 3156 3157 3158 3158 3159 3159 3159 3160 3160 3161 3161 3161
3125 3125 3124 3123 3123 3122 3121 3119 3118 3117 3116 3114 3113 3113 3112 3113 3113 3113 3113 3112 3113 3113 3112 3112 3112 3111 3110 3110 3109 3109 3109 3109 3110 3111 3112 3113 3114 3115 3116 3118 3119 3120 3121 3122 3123 3124 3125 3126 3128 3130 3132 3133 3135 3136 3137 3139 3141 3142 3143 3144 3145 3146 3147 3147 3148 3149 3149 3150 3151 3152 3152 3153 3154 3155 3155 3156 3156 3157 3157 3158 3158 3158 3159 3160 3160
3124 3123 3122 3122 3121 3120 3119 3118 3117 3115 3114 3113 3111 3110 3110 3110 3110 3110 3110 3110 3110 3110 3110 3109 3109 3109 3108 3107 3107 3107 3107 3107 3107 3108 3109 3110 3112 3113 3114 3116 3117 3118 3120 3120 3120 3121 3122 3123 3126 3128 3129 3131 3133 3134 3134 3136 3138 3139 3140 3142 3142 3143 3144 3145 3146 3147 3147 3147 3149 3150 3150 3151 3152 3153 3153 3154 3154 3155 3156 3156 3156 3157 3157 3158 3158
3122 3121 3121 3120 3119 3118 3117 3116 3115 3114 3113 3111 3110 3109 3108 3108 3107 3107 3107 3107 3107 3107 3107 3106 3106 3106 3105 3105 3104 3105 3105 3105 3105 3106 3107 3108 3109 3110 3112 3113 3114 3116 3117 3117 3118 3119 3121 3122 3123 3125 3127 3128 3130 3130 3131 3133 3135 3136 3137 3139 3140 3140 3141 3142 3144 3144 3144 3145 3146 3147 3148 3149 3150 3150 3151 3152 3152 3153 3154 3154 3154 3155 3156 3156 3156
3120 3119 3119 3118 3117 3116 3116 3115 3114 3113 3111 3110 3108 3107 3106 3105 3105 3104 3104 3104 3104 3104 3104 3104 3103 3102 3102 3102 3101 3101 3101 3102 3103 3104 3105 3106 3106 3108 3109 3110 3111 3113 3115 3115 3116 3116 3118 3119 3121 3122 3123 3124 3126 3127 3129 3130 3132 3133 3135 3136 3136 3137 3138 3139 3140 3141 3142 3143 3144 3145 3146 3146 3147 3148 3149 3150 3150 3151 3152 3152 3153 3153 3153 3154 3154
3118 3117 3117 3116 3115 3114 3114 3113 3112 3111 3110 3108 3107 3106 3105 3104 3103 3102 3102 3101 3101 3102 3102 3101 3100 3099 3098 3098 3097 3096 3097 3099 3100 3101 3102 3103 3104 3105 3106 3107 3109 3110 3112 3114 3114 3114 3115 3117 3119 3119 3119 3121 3123 3124 3126 3127 3129 3130 3131 3132 3133 3134 3135 3136 3137 3138 3139 3140 3141 3142 3143 3144 3145 3146 3147 3148 3148 3149 3150 3150 3151 3151 3151 3152 3152
3116 3116 3115 3114 3113 3112 3111 3110 3110 3109 3108 3107 3105 3104 3103 3102 3101 3100 3100 3099 3099 3099 3099 3098 3098 3097 3095 3094 3093 3092 3093 3095 3096 3098 3099 3100 3101 3102 3102 3103 3106 3108 3109 3111 3111 3111 3113 3115 3116 3116 3117 3119 3120 3122 3123 3124 3125 3126 3127 3129 3129 3130 3131 3133 3134 3135 3136 3136 3137 3139 3140 3141 3142 3143 3144 3146 3147 3147 3148 3149 3149 3149 3149 3150 3150
3115 3114 3113 3112 3111 3110 3109 3108 3107 3106 3105 3104 3103 3102 3101 3100 3099 3098 3097 3097 3096 3096 3096 3096 3095 3094 3092 3091 3090 3090 3091 3092 3093 3094 3096 3097 3098 3099 3099 3100 3102 3104 3106 3107 3108 3109 3111 3113 3114 3114 3115 3116 3118 3119 3120 3120 3121 3122 3124 3125 3126 3127 3128 3129 3130 3130 3132 3133 3134 3135 3137 3138 3139 3141 3142 3144 3145 3145 3146 3146 3147 3147 3147 3148 3148
3113 3112 3111 3110 3109 3108 3107 3106 3104 3103 3102 3102 3101 3100 3099 3098 3097 3096 3095 3094 3093 3092 3092 3092 3092 3091 3089 3087 3087 3088 3089 3090 3090 3091 3093 3094 3095 3096 3096 3097 3100 3101 3102 3104 3106 3107 3109 3110 3111 3112 3113 3115 3115 3116 3118 3119 3119 3120 3121 3122 3124 3124 3125 3126 3126 3127 3128 3130 3131 3132 3134 3135 3136 3138 3140 3141 3142 3143 3143 3143 3144 3144 3145 3145 3145
3111 3110 3109 3108 3107 3106 3105 3103 3102 3100 3099 3099 3098 3097 3096 3095 3094 3093 3092 3091 3090 3089 3088 3088 3088 3087 3086 3084 3084 3085 3087 3087 3086 3087 3090 3091 3093 3093 3093 3095 3097 3098 3099 3101 3103 3105 3106 3107 3108 3109 3112 3113 3113 3113 3115 3117 3118 3119 3119 3119 3121 3122 3123 3124 3123 3124 3126 3127 3127 3129 3131 3132 3134 3135 3137 3139 3140 3141 3141 3141 3142 3142 3142 3143 3143
3109 3107 3106 3105 3104 3104 3102 3101 3099 3098 3097 3096 3095 3094 3093 3092 3091 3090 3089 3087 3086 3085 3084 3084 3083 3083 3082 3081 3081 3082 3083 3084 3083 3085 3087 3089 3090 3090 3090 3091 3092 3094 3096 3098 3100 3102 3103 3104 3105 3106 3108 3109 3110 3111 3112 3114 3115 3116 3117 3117 3119 3120 3121 3122 3121 3121 3123 3124 3124 3127 3129 3130 3131 3133 3134 3136 3137 3138 3138 3139 3139 3140 3140 3141 3141
3106 3105 3104 3102 3101 3101 3100 3098 3097 3095 3094 3093 3091 3090 3090 3089 3088 3086 3085 3084 3083 3081 3081 3080 3079 3079 3078 3078 3078 3079 3080 3081 3082 3083 3084 3085 3086 3086 3086 3086 3087 3090 3093 3095 3097 3098 3100 3100 3102 3103 3105 3106 3107 3108 3109 3111 3112 3113 3114 3115 3116 3117 3118 3119 3119 3120 3121 3121 3122 3125 3127 3127 3129 3130 3131 3132 3134 3134 3135 3136 3137 3138 3138 3139 3139
3104 3103 3101 3100 3099 3098 3096 3095 3094 3093 3091 3090 3088 3087 3086 3085 3084 3082 3081 3080 3079 3078 3077 3076 3075 3075 3074 3074 3075 3075 3076 3078 3080 3080 3080 3081 3082 3082 3081 3082 3083 3086 3090 3092 3093 3095 3097 3097 3099 3101 3102 3103 3104 3105 3106 3108 3109 3110 3111 3111 3112 3114 3115 3116 3117 3118 3119 3119 3119 3122 3125 3125 3126 3127 3128 3129 3131 3131 3132 3133 3134 3135 3136 3136 3137
3102 3101 3100 3098 3096 3095 3093 3092 3091 3089 3088 3086 3085 3083 3082 3080 3079 3078 3077 3076 3074 3074 3073 3072 3071 3071 3070 3070 3071 3071 3072 3074 3076 3077 3077 3078 3077 3077 3077 3078 3080 3083 3086 3089 3090 3092 3094 3095 3096 3097 3099 3099 3100 3102 3103 3105 3106 3107 3108 3108 3110 3111 3112 3113 3114 3115 3116 3117 3116 3119 3122 3122 3123 3124 3125 3126 3128 3128 3129 3130 3131 3132 3133 3133 3134
3100 3098 3097 3096 3094 3092 3091 3089 3088 3086 3085 3083 3081 3079 3078 3076 3074 3073 3072 3071 3070 3069 3069 3068 3067 3066 3066 3066 3066 3066 3067 3069 3071 3072 3073 3074 3074 3074 3074 3075 3077 3080 3083 3086 3088 3090 3091 3092 3092 3094 3095 3096 3097 3099 3100 3101 3103 3103 3104 3105 3107 3108 3109 3110 3111 3112 3113 3114 3114 3116 3118 3119 3120 3121 3122 3123 3124 3125 3126 3127 3128 3129 3130 3130 3131
3097 3096 3095 3094 3092 3090 3088 3087 3085 3083 3081 3080 3078 3076 3074 3072 3070 3069 3067 3066 3065 3064 3064 3063 3063 3062 3061 3061 3061 3062 3063 3065 3066 3067 3069 3070 3071 3072 3072 3073 3075 3078 3080 3083 3085 3087 3088 3088 3088 3089 3091 3092 3094 3096 3097 3098 3099 3100 3101 3102 3104 3105 3106 3107 3108 3109 3110 3111 3112 3114 3114 3115 3116 3118 3119 3120 3121 3122 3123 3124 3125 3126 3127 3127 3128
3095 3094 3093 3092 3090 3088 3086 3084 3082 3080 3078 3076 3075 3073 3071 3069 3067 3065 3063 3062 3061 3060 3059 3058 3057 3057 3057 3056 3057 3057 3059 3060 3062 3063 3065 3066 3067 3068 3069 3071 3072 3075 3077 3079 3081 3083 3085 3086 3086 3086 3088 3089 3091 3092 3093 3094 3095 3096 3098 3099 3100 3101 3103 3103 3105 3106 3107 3108 3110 3111 3111 3112 3113 3114 3116 3117 3118 3119 3120 3121 3122 3123 3124 3124 3125
3093 3092 3091 3089 3088 3087 3084 3082 3080 3078 3076 3074 3072 3070 3068 3066 3065 3063 3061 3059 3057 3055 3054 3053 3052 3052 3052 3052 3052 3053 3055 3056 3057 3058 3060 3061 3063 3064 3066 3068 3070 3071 3074 3076 3078 3079 3081 3083 3084 3085 3086 3087 3088 3089 3090 3091 3092 3093 3094 3096 3097 3098 3099 3100 3101 3103 3104 3105 3106 3107 3108 3109 3110 3111 3112 3113 3115 3116 3117 3118 3119 3120 3121 3121 3121
3091 3090 3088 3087 3086 3084 3083 3081 3078 3076 3074 3071 3069 3067 3065 3063 3061 3060 3058 3056 3054 3052 3050 3049 3048 3047 3047 3048 3049 3049 3051 3052 3053 3054 3055 3057 3058 3060 3063 3065 3066 3068 3070 3072 3073 3075 3078 3079 3081 3082 3084 3084 3085 3086 3086 3087 3088 3090 3091 3092 3093 3095 3096 3097 3098 3099 3100 3102 3103 3104 3105 3106 3107 3108 3109 3110 3112 3113 3114 3115 3116 3117 3117 3117 3118
3090 3088 3086 3085 3083 3082 3081 3079 3077 3075 3072 3070 3067 3065 3063 3061 3058 3056 3055 3053 3051 3049 3047 3045 3044 3044 3044 3044 3045 3046 3047 3048 3049 3050 3052 3053 3054 3057 3059 3061 3062 3063 3065 3067 3069 3071 3075 3077 3078 3078 3080 3081 3081 3082 3083 3084 3085 3086 3088 3089 3090 3091 3093 3094 3095 3096 3097 3098 3100 3101 3102 3103 3104 3105 3106 3108 3109 3110 3111 3112 3112 3113 3113 3114 3115
3089 3087 3085 3083 3082 3080 3079 3077 3075 3073 3071 3069 3066 3064 3061 3059 3057 3054 3052 3050 3048 3047 3045 3043 3042 3042 3041 3042 3042 3043 3044 3045 3046 3047 3048 3050 3051 3053 3054 3056 3057 3059 3061 3063 3065 3068 3072 3074 3074 3074 3076 3077 3078 3079 3080 3081 3083 3084 3085 3087 3088 3089 3090 3091 3092 3093 3094 3096 3097 3098 3099 3100 3101 3103 3103 3104 3105 3107 3107 3108 3108 3109 3109 3110 3110
3088 3086 3084 3083 3081 3079 3077 3075 3073 3071 3069 3068 3066 3063 3061 3058 3056 3053 3051 3049 3048 3046 3044 3043 3041 3040 3040 3040 3040 3040 3041 3041 3042 3043 3044 3046 3048 3049 3050 3053 3055 3056 3058 3060 3062 3065 3068 3070 3070 3070 3072 3074 3075 3076 3077 3078 3080 3081 3083 3084 3085 3086 3087 3088 3089 3091 3092 3093 3094 3095 3096 3097 3098 3099 3100 3100 3101 3102 3103 3104 3104 3105 3106 3106 3106
3088 3086 3084 3082 3081 3079 3076 3074 3072 3070 3068 3066 3064 3063 3060 3058 3056 3054 3052 3049 3048 3046 3045 3043 3041 3040 3039 3038 3038 3038 3038 3038 3038 3040 3042 3043 3044 3045 3048 3051 3052 3052 3055 3057 3059 3061 3064 3065 3065 3067 3069 3070 3072 3073 3074 3075 3076 3077 3079 3080 3082 3083 3084 3085 3087 3087 3088 3089 3090 3092 3093 3094 3095 3095 3096 3097 3098 3099 3100 3100 3101 3102 3102 3103 3103
3087 3085 3083 3082 3080 3078 3076 3074 3072 3069 3067 3065 3063 3062 3060 3058 3056 3054 3052 3050 3048 3046 3045 3043 3042 3040 3039 3038 3037 3037 3037 3037 3038 3039 3040 3039 3040 3043 3046 3047 3048 3050 3052 3054 3055 3057 3059 3060 3062 3064 3066 3067 3068 3070 3071 3071 3072 3073 3074 3076 3077 3079 3080 3082 3083 3084 3085 3086 3086 3087 3089 3090 3091 3092 3093 3094 3095 3096 3097 3097 3098 3099 3099 3099 3100
3086 3084 3082 3081 3079 3077 3075 3073 3071 3069 3067 3064 3063 3061 3059 3057 3056 3054 3052 3050 3048 3047 3045 3044 3042 3041 3040 3039 3038 3037 3037 3038 3038 3038 3037 3036 3037 3040 3043 3044 3046 3048 3049 3051 3052 3054 3055 3057 3058 3060 3062 3063 3065 3066 3067 3068 3069 3070 3071 3072 3074 3075 3076 3077 3078 3080 3081 3082 3083 3084 3085 3086 3087 3088 3089 3090 3091 3092 3093 3094 3094 3095 3095 3095 3096
3085 3084 3082 3080 3078 3076 3075 3073 3071 3069 3066 3064 3062 3060 3058 3057 3055 3053 3051 3050 3048 3046 3045 3043 3042 3041 3040 3039 3038 3038 3037 3037 3038 3038 3037 3037 3037 3038 3040 3042 3043 3045 3046 3048 3050 3051 3052 3054 3055 3057 3058 3060 3061 3063 3064 3065 3065 3066 3067 3068 3070 3071 3072 3074 3075 3076 3077 3078 3079 3080 3081 3082 3084 3085 3086 3087 3087 3088 3089 3090 3090 3091 3091 3091 3091
3084 3083 3081 3080 3078 3076 3074 3073 3071 3069 3067 3064 3062 3060 3058 3056 3055 3053 3051 3050 3048 3046 3045 3043 3042 3041 3039 3038 3037 3037 3036 3036 3036 3036 3036 3037 3037 3037 3038 3039 3040 3042 3043 3045 3046 3048 3049 3051 3052 3053 3055 3056 3058 3059 3060 3061 3061 3062 3063 3064 3065 3066 3067 3069 3070 3071 3072 3073 3074 3075 3077 3078 3080 3081 3082 3083 3083 3084 3085 3085 3086 3087 3087 3087 3088
3084 3083 3081 3079 3078 3076 3074 3072 3070 3068 3067 3065 3062 3060 3058 3056 3054 3052 3051 3049 3048 3046 3045 3043 3042 3041 3039 3038 3037 3036 3035 3035 3034 3034 3035 3035 3035 3036 3037 3038 3039 3040 3042 3043 3044 3045 3047 3048 3049 3051 3052 3053 3054 3056 3057 3058 3058 3059 3059 3060 3061 3063 3064 3065 3066 3067 3068 3069 3070 3072 3073 3074 3075 3077 3078 3079 3079 3080 3080 3081 3082 3082 3083 3083 3084
3085 3083 3081 3079 3077 3075 3074 3072 3070 3068 3067 3065 3063 3060 3058 3056 3054 3052 3050 3049 3047 3046 3044 3043 3042 3041 3039 3038 3037 3035 3034 3034 3033 3033 3033 3033 3033 3034 3035 3036 3037 3038 3039 3041 3042 3043 3044 3045 3047 3048 3049 3050 3051 3052 3053 3054 3055 3056 3057 3057 3058 3059 3061 3062 3063 3064 3066 3067 3068 3069 3070 3071 3072 3073 3074 3075 3075 3076 3076 3077 3077 3078 3080 3081 3082
3085 3083 3081 3079 3077 3075 3073 3071 3070 3068 3066 3065 3063 3061 3059 3057 3055 3053 3051 3049 3047 3046 3045 3043 3042 3040 3039 3038 3037 3035 3034 3033 3032 3032 3031 3031 3032 3032 3032 3033 3034 3035 3036 3038 3039 3040 3041 3042 3043 3045 3046 3047 3048 3049 3050 3050 3051 3052 3053 3054 3055 3056 3056 3058 3059 3060 3062 3063 3064 3065 3066 3067 3068 3069 3070 3071 3071 3072 3073 3074 3075 3077 3078 3079 3079
3086 3084 3082 3080 3078 3076 3073 3072 3070 3068 3067 3065 3063 3061 3060 3058 3056 3054 3052 3050 3048 3046 3045 3043 3042 3040 3039 3038 3037 3036 3034 3033 3032 3031 3031 3030 3030 3030 3031 3031 3032 3033 3034 3035 3036 3037 3038 3039 3041 3042 3043 3044 3045 3045 3046 3047 3048 3049 3050 3051 3052 3052 3053 3054 3056 3056 3058 3059 3060 3061 3062 3063 3064 3065 3066 3067 3068 3069 3070 3072 3074 3075 3076 3076 3076
3086 3084 3082 3080 3078 3076 3074 3072 3070 3068 3067 3065 3064 3062 3061 3059 3057 3055 3053 3051 3049 3047 3046 3044 3042 3041 3039 3038 3037 3036 3035 3034 3033 3032 3031 3030 3030 3029 3029 3030 3030 3031 3032 3033 3034 3035 3036 3037 3038 3039 3040 3040 3041 3042 3043 3043 3044 3045 3046 3047 3048 3049 3050 3051 3052 3053 3054 3055 3057 3058 3059 3060 3061 3062 3063 3064 3065 3067 3069 3071 3072 3073 3074 3073 3073
3086 3084 3082 3080 3078 3076 3074 3072 3071 3069 3067 3066 3064 3062 3061 3060 3058 3056 3054 3052 3050 3048 3047 3045 3043 3041 3040 3038 3037 3036 3035 3034 3033 3032 3031 3030 3030 3029 3029 3029 3029 3029 3030 3031 3031 3032 3033 3034 3035 3036 3036 3037 3038 3039 3040 3040 3041 3042 3043 3044 3045 3046 3047 3048 3049 3050 3051 3053 3054 3055 3056 3058 3059 3060 3061 3062 3064 3066 3067 3069 3070 3071 3071 3070 3070
3086 3084 3083 3081 3079 3077 3075 3073 3072 3070 3068 3066 3065 3063 3062 3060 3059 3057 3055 3053 3051 3049 3048 3046 3044 3042 3041 3039 3038 3037 3035 3034 3034 3033 3032 3031 3030 3029 3029 3028 3028 3028 3028 3029 3030 3030 3031 3032 3032 3033 3033 3034 3035 3036 3036 3037 3038 3039 3040 3041 3042 3044 3045 3046 3047 3048 3049 3051 3052 3053 3054 3056 3057 3058 3060 3061 3063 3064 3066 3067 3067 3068 3068 3067 3067
3086 3084 3083 3081 3079 3078 3076 3075 3073 3071 3069 3067 3066 3064 3062 3060 3059 3057 3055 3054 3052 3050 3049 3047 3045 3043 3042 3040 3038 3037 3036 3035 3034 3034 3033 3032 3031 3030 3030 3029 3028 3028 3028 3028 3029 3029 3030 3030 3031 3031 3032 3032 3032 3033 3034 3035 3036 3037 3038 3039 3040 3041 3042 3044 3045 3046 3047 3049 3050 3052 3053 3055 3057 3058 3059 3060 3062 3063 3064 3064 3065 3065 3065 3064 3064
3087 3085 3083 3082 3080 3079 3077 3076 3074 3072 3070 3068 3067 3065 3063 3061 3059 3057 3056 3054 3053 3051 3049 3048 3045 3043 3042 3040 3039 3038 3037 3036 3035 3034 3034 3033 3032 3031 3031 3030 3030 3029 3029 3029 3029 3029 3030 3030 3030 3031 3031 3031 3032 3032 3033 3034 3034 3035 3036 3037 3039 3040 3041 3042 3044 3045 3046 3048 3049 3051 3053 3054 3056 3057 3058 3059 3060 3061 3062 3062 3062 3062 3062 3061 3061
3087 3086 3084 3082 3081 3079 3078 3077 3075 3073 3071 3069 3067 3065 3063 3062 3060 3058 3056 3055 3054 3052 3050 3048 3046 3043 3041 3040 3039 3038 3037 3036 3035 3035 3034 3033 3033 3032 3031 3031 3031 3031 3030 3030 3030 3030 3030 3031 3031 3031 3031 3032 3032 3032 3033 3034 3034 3035 3036 3037 3038 3040 3041 3042 3044 3045 3047 3048 3049 3051 3052 3053 3054 3056 3057 3057 3058 3059 3059 3059 3059 3059 3059 3058 3058
3087 3086 3084 3082 3081 3079 3078 3077 3075 3073 3071 3070 3068 3066 3064 3062 3060 3059 3057 3055 3053 3051 3050 3048 3046 3044 3042 3040 3038 3037 3037 3036 3035 3035 3034 3034 3033 3032 3032 3032 3031 3031 3031 3031 3031 3031 3031 3031 3031 3031 3032 3032 3032 3032 3033 3034 3035 3036 3037 3038 3039 3040 3041 3043 3044 3046 3047 3048 3049 3050 3051 3052 3053 3054 3055 3056 3056 3057 3057 3057 3057 3057 3057 3056 3056
3087 3086 3084 3082 3081 3079 3078 3076 3075 3073 3071 3070 3068 3066 3064 3062 3060 3058 3056 3055 3053 3051 3049 3047 3045 3044 3042 3040 3038 3037 3036 3035 3035 3034 3033 3033 3032 3032 3032 3032 3032 3031 3031 3031 3031 3032 3032 3032 3032 3032 3032 3032 3032 3033 3033 3034 3035 3036 3037 3038 3039 3041 3042 3043 3044 3046 3047 3048 3049 3050 3051 3051 3052 3053 3054 3054 3055 3055 3055 3055 3055 3055 3054 3054 3054
3087 3086 3084 3082 3081 3079 3077 3075 3074 3072 3071 3069 3068 3066 3064 3062 3060 3058 3056 3054 3052 3050 3048 3047 3045 3043 3041 3039 3038 3037 3035 3034 3033 3033 3032 3032 3031 3031 3031 3031 3031 3031 3031 3031 3031 3031 3031 3032 3032 3032 3032 3032 3033 3033 3034 3034 3035 3036 3037 3039 3040 3041 3042 3043 3044 3046 3047 3047 3048 3049 3050 3050 3051 3052 3052 3053 3053 3053 3053 3053 3053 3053 3052 3052 3051
3087 3086 3084 3082 3080 3079 3077 3075 3073 3071 3070 3069 3067 3066 3063 3061 3059 3057 3055 3053 3051 3049 3048 3046 3044 3042 3041 3039 3037 3036 3035 3033 3032 3031 3031 3030 3030 3030 3030 3030 3030 3031 3031 3031 3031 3031 3031 3031 3032 3032 3032 3032 3033 3033 3034 3035 3036 3037 3038 3039 3040 3041 3042 3043 3044 3045 3046 3047 3048 3048 3049 3049 3050 3050 3051 3051 3051 3051 3051 3051 3051 3051 3050 3050 3049
3087 3085 3083 3082 3080 3078 3077 3075 3073 3071 3069 3068 3066 3064 3063 3061 3059 3057 3054 3052 3051 3049 3047 3045 3044 3042 3040 3038 3037 3035 3034 3032 3031 3030 3030 3029 3029 3029 3029 3029 3029 3030 3030 3030 3031 3031 3031 3031 3032 3032 3032 3033 3033 3034 3034 3035 3036 3037 3038 3039 3040 3041 3042 3043 3044 3045 3046 3046 3047 3047 3048 3048 3049 3049 3049 3050 3050 3050 3050 3050 3049 3049 3048 3048 3048
3086 3084 3083 3081 3079 3078 3076 3074 3073 3071 3069 3068 3065 3063 3062 3061 3059 3057 3054 3052 3050 3049 3047 3045 3043 3041 3039 3038 3036 3034 3033 3031 3030 3029 3029 3028 3028 3028 3027 3028 3028 3029 3029 3030 3030 3031 3031 3031 3032 3032 3032 3033 3033 3034 3035 3035 3036 3037 3038 3039 3040 3041 3042 3043 3043 3044 3045 3045 3046 3046 3047 3047 3047 3048 3048 3048 3048 3048 3048 3048 3048 3048 3047 3047 3046
3085 3083 3082 3080 3078 3077 3075 3074 3072 3070 3069 3067 3065 3063 3062 3060 3059 3057 3055 3053 3050 3048 3046 3044 3043 3041 3039 3037 3035 3034 3032 3030 3029 3028 3028 3027 3026 3026 3026 3026 3027 3028 3029 3029 3030 3030 3030 3031 3031 3032 3032 3033 3033 3034 3035 3036 3036 3037 3038 3039 3040 3040 3041 3042 3043 3043 3044 3045 3045 3045 3046 3046 3046 3046 3046 3046 3046 3046 3047 3047 3047 3046 3046 3045 3045
3084 3082 3081 3079 3078 3076 3075 3073 3071 3070 3068 3066 3065 3063 3061 3060 3058 3057 3055 3053 3051 3049 3046 3044 3042 3040 3038 3037 3035 3033 3031 3030 3029 3028 3027 3026 3026 3025 3025 3026 3026 3027 3028 3029 3029 3030 3030 3030 3031 3032 3032 3033 3033 3034 3035 3035 3036 3037 3038 3038 3039 3040 3041 3042 3042 3043 3043 3044 3044 3044 3045 3045 3045 3045 3045 3045 3045 3045 3045 3045 3045 3045 3044 3044 3043
3083 3081 3080 3078 3077 3075 3074 3072 3071 3069 3068 3066 3065 3063 3061 3060 3058 3056 3055 3053 3051 3049 3047 3045 3042 3040 3038 3036 3034 3033 3031 3029 3028 3027 3026 3026 3025 3025 3025 3025 3026 3027 3027 3028 3029 3029 3030 3030 3031 3032 3032 3033 3033 3034 3035 3035 3036 3036 3037 3038 3039 3040 3040 3041 3041 3042 3042 3042 3043 3043 3043 3043 3043 3044 3044 3044 3044 3044 3044 3043 3043 3043 3043 3043 3043
3081 3080 3079 3077 3076 3074 3073 3071 3070 3068 3067 3066 3064 3063 3061 3059 3057 3056 3054 3052 3051 3049 3047 3045 3043 3041 3039 3037 3034 3033 3031 3029 3028 3027 3026 3025 3025 3025 3025 3025 3026 3026 3027 3028 3028 3029 3030 3030 3031 3031 3032 3033 3033 3034 3034 3035 3035 3036 3037 3037 3038 3039 3039 3040 3040 3040 3041 3041 3042 3042 3042 3042 3042 3042 3042 3042 3042 3042 3042 3042 3042 3042 3042 3043 3043
3080 3079 3077 3076 3075 3073 3072 3070 3068 3067 3065 3064 3063 3061 3060 3058 3057 3055 3054 3052 3050 3049 3048 3046 3044 3042 3040 3037 3035 3033 3031 3029 3028 3027 3026 3025 3025 3025 3025 3025 3026 3026 3027 3027 3028 3029 3029 3030 3030 3031 3031 3032 3032 3033 3033 3034 3035 3035 3036 3037 3037 3038 3038 3039 3039 3039 3040 3041 3041 3041 3041 3041 3041 3040 3041 3041 3041 3041 3041 3042 3042 3042 3042 3043 3043
3079 3077 3076 3075 3073 3072 3071 3069 3067 3066 3064 3063 3062 3060 3059 3057 3056 3054 3053 3052 3050 3049 3048 3046 3044 3042 3040 3038 3036 3033 3031 3029 3028 3027 3026 3025 3025 3025 3025 3025 3026 3026 3027 3028 3028 3028 3029 3030 3030 3031 3031 3031 3032 3032 3033 3034 3034 3035 3035 3036 3037 3037 3037 3038 3038 3039 3040 3040 3040 3040 3039 3039 3039 3039 3039 3040 3040 3041 3041 3042 3042 3042 3042 3042 3042
3078 3076 3075 3074 3072 3071 3069 3068 3066 3065 3063 3062 3060 3059 3058 3056 3055 3054 3053 3051 3050 3048 3047 3046 3044 3042 3040 3038 3036 3034 3032 3030 3028 3027 3026 3025 3025 3025 3025 3025 3026 3026 3027 3027 3028 3028 3028 3029 3029 3030 3030 3031 3031 3032 3033 3033 3034 3034 3035 3035 3036 3036 3037 3037 3038 3038 3038 3038 3038 3038 3038 3038 3038 3039 3039 3040 3041 3041 3042 3042 3042 3042 3042 3041 3041
3076 3075 3074 3072 3071 3070 3068 3067 3065 3064 3062 3061 3059 3058 3056 3055 3054 3053 3052 3050 3049 3047 3046 3045 3043 3041 3040 3038 3036 3034 3032 3030 3028 3027 3026 3025 3025 3024 3025 3025 3025 3026 3026 3026 3027 3027 3028 3028 3029 3029 3030 3030 3031 3032 3032 3033 3033 3034 3034 3035 3035 3036 3036 3037 3037 3037 3037 3037 3037 3037 3037 3038 3038 3039 3040 3040 3041 3041 3041 3041 3041 3041 3040 3040 3039